This is the latest recevied weather packets stored in our database for station/object F5OZP-13. If no packets are shown the sender has not sent any weather packets the latest 10 day(s).
| Time | Temp. | Humidity | Pressure | Rain* | Wind** | Luminosity | Snow |
|---|---|---|---|---|---|---|---|
| 1777823644 | 18.33° C | 99% | 1012.7 hPa | - | - | 0 W/m² | - |
| 1777823336 | 18.33° C | 99% | 1012.8 hPa | - | - | 0 W/m² | - |
| 1777823028 | 18.33° C | 99% | 1012.8 hPa | - | - | 0 W/m² | - |
| 1777822728 | 18.33° C | 99% | 1012.9 hPa | - | - | 0 W/m² | - |
| 1777822412 | 18.89° C | 99% | 1012.9 hPa | - | - | 0 W/m² | - |
| 1777822103 | 18.33° C | 99% | 1013 hPa | - | - | 0 W/m² | - |
| 1777821795 | 18.89° C | 99% | 1013 hPa | - | - | 0 W/m² | - |
| 1777821487 | 19.44° C | 99% | 1013 hPa | - | - | 0 W/m² | - |
| 1777821179 | 20.56° C | 99% | 1013 hPa | - | - | 0 W/m² | - |
| 1777820884 | 20° C | 99% | 1012.9 hPa | - | - | 0 W/m² | - |
| 1777820567 | 20° C | 99% | 1012.9 hPa | - | - | 0 W/m² | - |
| 1777820259 | 20° C | 99% | 1012.9 hPa | - | - | 0 W/m² | - |
| 1777819951 | 20° C | 99% | 1013.1 hPa | - | - | 0 W/m² | - |
| 1777819643 | 20° C | 99% | 1013.1 hPa | - | - | 0 W/m² | - |
| 1777819335 | 20.56° C | 99% | 1013.2 hPa | - | - | 0 W/m² | - |
| 1777819035 | 20.56° C | 99% | 1013.3 hPa | - | - | 0 W/m² | - |
| 1777818718 | 20.56° C | 99% | 1013.4 hPa | - | - | 0 W/m² | - |
| 1777818410 | 20.56° C | 99% | 1013.4 hPa | - | - | 0 W/m² | - |
| 1777818102 | 20.56° C | 99% | 1013.3 hPa | - | - | 0 W/m² | - |
| 1777817794 | 20.56° C | 99% | 1013.2 hPa | - | - | 0 W/m² | - |
| 1777817486 | 20.56° C | 99% | 1013.2 hPa | - | - | 0 W/m² | - |
| 1777817191 | 21.11° C | 99% | 1013.3 hPa | - | - | 0 W/m² | - |
| 1777816880 | 20° C | 99% | 1013.3 hPa | - | - | 0 W/m² | - |
| 1777816566 | 20° C | 99% | 1013.3 hPa | - | - | 0 W/m² | - |
| 1777816258 | 20° C | 99% | 1013.4 hPa | - | - | 0 W/m² | - |
* Rain since midnight (hover to see other rain measurements)
** Current wind speed in m/s (hover to see current wind gust speed)